Hourly Data Report for September 18, 2017

All times are specified in Local Standard Time (LST). Add 1 hour to adjust for Daylight Saving Time where and when it is observed.

MONCTON INTL A
NEW BRUNSWICK

46°06'44.000" N
64°40'43.000" W
70.70 m
8103201
71705
YQM

Download Data

Hourly Data (September 2017)
Hourly Data Report for September 18, 2017
Temp Definition
°C
Dew Point Temp Definition
°C
Rel Hum Definition
%
Wind Dir Definition
10's deg

Wind Spd Definition
km/h
Visibility Definition
km
Stn Press Definition
kPa
Hmdx Definition


Wind Chill Definition


Weather Definition


TIME
00:00 Legend Double Dagger 15.3 15.1 98 15 3 1.2 101.36     Fog
01:00 Legend Double Dagger 15.0 14.8 99 11 4 0.8 101.35     Fog
02:00 Legend Double Dagger 14.9 14.7 99 14 7 0.6 101.34     Fog
03:00 Legend Double Dagger 14.9 14.8 99 17 7 0.4 101.33     Fog
04:00 Legend Double Dagger 15.0 14.8 99 12 4 0.6 101.38     Fog
05:00 Legend Double Dagger 15.0 14.8 99 15 7 1.6 101.38     Fog
06:00 Legend Double Dagger 14.8 14.6 99 18 5 4.8 101.44     Fog
07:00 Legend Double Dagger 14.9 14.7 99 12 5 9.7 101.46     Fog
08:00 Legend Double Dagger 15.5 15.2 98 9 4 9.7 101.53     Fog
09:00 Legend Double Dagger 16.1 15.7 97 11 8 19.3 101.53     LegendNANA
10:00 Legend Double Dagger 17.4 15.9 91 9 7 24.1 101.54     LegendNANA
11:00 Legend Double Dagger 18.9 16.4 85 12 8 24.1 101.53     Mostly Cloudy
12:00 Legend Double Dagger 20.6 17.4 82 36 1 24.1 101.51 26   LegendNANA
13:00 Legend Double Dagger 22.9 17.7 72 15 16 24.1 101.48 29   LegendNANA
14:00 Legend Double Dagger 23.0 18.1 73 16 15 24.1 101.47 29   Mostly Cloudy
15:00 Legend Double Dagger 23.2 17.8 72 16 18 24.1 101.46 29   LegendNANA
16:00 Legend Double Dagger 22.9 17.2 70 17 20 24.1 101.47 28   LegendNANA
17:00 Legend Double Dagger 21.2 17.0 77 17 22 24.1 101.50 26   Mainly Clear
18:00 Legend Double Dagger 19.9 16.7 82 17 14 24.1 101.52     LegendNANA
19:00 Legend Double Dagger 18.4 16.1 87 20 7 24.1 101.55     LegendNANA
20:00 Legend Double Dagger 17.6 15.8 89 16 8 24.1 101.59     Mainly Clear
21:00 Legend Double Dagger 17.1 16.1 94 17 5 24.1 101.60     LegendNANA
22:00 Legend Double Dagger 16.6 15.8 95 17 8 24.1 101.61     LegendNANA
23:00 Legend Double Dagger 16.9 16.1 95 17 9 24.1 101.61     Mostly Cloudy

Notes on Data Quality.

Legend

  • E = Estimated
  • M = Missing
  • NA = Not Available
  • ‡ = Partner data that is not subject to review by the National Climate Archives
Date modified: